[Date Prev][Date Next][Thread Prev][Thread Next] - [Date Index][Thread Index][Author Index]

2 Line ISS Keps 5-6



ISS
1 25544U 98067A   04127.30344568  .00017121  00000-0  14820-3 0  7197
2 25544  51.6274 179.2153 0011130 104.3548 346.1252 15.69224476311741


----
Via the sarex mailing list at AMSAT.ORG courtesy of AMSAT-NA.
To unsubscribe, send "unsubscribe sarex" to Majordomo@amsat.org



AMSAT Top AMSAT Home